This demonstration page uses our WeatherBlox Daily Observations layout. Learn more.

Left ArrowRight Arrow

41.55636, -103.73856

Hourly Observations for January 21, 2021

Temp ( °F °C ) Dew Point ( °F °C ) Humidity (%) Winds ( mph kmh ) Pressure ( in mb ) Visibility ( mi km ) Precip ( " mm )
12:53 am 00:53 Clear 36 2.2 17 -8.3 46 46 WNW 8 13 29.9 1013 10 16.0934 0 0
1:53 am 01:53 Clear 35 1.7 18 -7.8 50 50 NW 12 19 29.91 1013 10 16.0934 0 0
2:53 am 02:53 Clear 38 3.3 18 -7.8 44 44 W 13 20 29.9 1013 10 16.0934 0 0
3:53 am 03:53 Clear 34 1.1 17 -8.3 50 50 WNW 13 20 29.91 1013 10 16.0934 0 0
4:53 am 04:53 Clear 29 -1.7 16 -8.9 58 58 NW 12 19 29.96 1015 10 16.0934 0 0
5:53 am 05:53 Mostly Cloudy 31 -0.6 13 -10.6 47 47 NW 9 15 29.98 1015 10 16.0934 0 0
6:53 am 06:53 Clear 30 -1.1 11 -11.7 45 45 NW 13 20 30.01 1016 10 16.0934 0 0
7:53 am 07:53 Mostly Sunny 29 -1.7 12 -11.1 49 49 WNW 9 15 30.04 1017 10 16.0934 0 0
8:53 am 08:53 Sunny 35 1.7 14 -10 42 42 WNW 10 17 30.08 1019 10 16.0934 0 0
9:53 am 09:53 Sunny 37 2.8 14 -10 39 39 WNW 7 11 30.07 1018 10 16.0934 0 0
10:53 am 10:53 Sunny 41 5 13 -10.6 32 32 W 5 7 30.07 1018 10 16.0934 0 0
11:53 am 11:53 Sunny 43 6.1 12 -11.1 28 28 N 3 6 30.05 1018 10 16.0934 0 0
12:53 pm 12:53 Sunny 45 7.2 12 -11.1 26 26 undefined N/A 30 1016 10 16.0934 0 0
1:53 pm 13:53 Sunny 46 7.8 11 -11.7 24 24 VRB 6 9 29.98 1015 10 16.0934 0 0
2:53 pm 14:53 Sunny 44 6.7 12 -11.1 27 27 NNE 10 17 29.98 1015 10 16.0934 0 0
3:53 pm 15:53 Sunny 41 5 11 -11.7 29 29 NE 6 9 29.99 1016 10 16.0934 0 0
4:53 pm 16:53 Mostly Cloudy 33 0.6 11 -11.7 40 40 NNE 8 13 30.06 1018 10 16.0934 0 0
5:53 pm 17:53 Cloudy 32 0 12 -11.1 43 43 NE 7 11 30.07 1018 10 16.0934 0 0
6:53 pm 18:53 Cloudy 33 0.6 12 -11.1 42 42 ESE 8 13 30.09 1019 10 16.0934 0 0
7:53 pm 19:53 Cloudy 34 1.1 13 -10.6 42 42 ENE 8 13 30.09 1019 10 16.0934 0 0
8:53 pm 20:53 Cloudy 32 0 18 -7.8 56 56 ENE 10 17 30.08 1019 10 16.0934 0 0
9:53 pm 21:53 Cloudy 32 0 17 -8.3 54 54 ENE 7 11 30.07 1018 10 16.0934 0 0
10:53 pm 22:53 Cloudy 30 -1.1 16 -8.9 56 56 E 3 6 30.06 1018 10 16.0934 0 0
11:53 pm 23:53 Cloudy 30 -1.1 17 -8.3 58 58 E 5 7 30.05 1018 10 16.0934 0 0

Powered by AerisWeather